Regional Weather Roundup
Issued by NWS

Home | Current Version | Previous Version | Graphics & Text | Print | Product List | Glossary On
Versions: 1 2 3 4 5 6 7 8 9 10 11 12 13 14 15 16 17 18 19 20 21 22 23 24 25 26 27 28 29 30 31 32 33 34 35 36 37 38 39 40 41 42 43 44 45 46 47 48 49 50
000
ASUS43 KOAX 212002
RWRNE

WEATHER ROUNDUP FOR NEBRASKA
NATIONAL WEATHER SERVICE OMAHA NE
300 PM CDT THU MAY 21 2015

NOTES: SATELLITE DATA IS BEING USED TO AUGMENT CLOUD COVER ABOVE
       12000 FEET.
       "FAIR" INDICATES FEW OR NO CLOUDS BELOW 12,000 FEET WITH NO
       SIGNIFICANT WEATHER AND/OR OBSTRUCTIONS TO VISIBILITY.

  * THESE STATIONS DO NOT REPORT WEATHER SUCH AS RAIN...SNOW OR FOG.

NEZ001>004-019>022-054>056-212100-
NEBRASKA PANHANDLE

CITY           SKY/WX    TMP DP  RH WIND       PRES   REMARKS
SCOTTSBLUFF    CLOUDY    55  42  61 SE15      30.20S
ALLIANCE       CLOUDY    56  42  59 S10       30.21F
CHADRON        CLOUDY    58  41  53 S9        30.19F
KIMBALL          N/A    N/A N/A N/A MISG        N/A
SIDNEY         CLOUDY    53  42  66 SE14      30.22F
$$

NEZ057>060-069>072-079>082-212100-
SOUTHWEST NEBRASKA

CITY           SKY/WX    TMP DP  RH WIND       PRES   REMARKS
NORTH PLATTE   MOSUNNY   60  40  47 S5        30.25F
IMPERIAL       CLOUDY    55  42  61 S12       30.25F
LEXINGTON      SUNNY     62  43  50 SE6       30.26F
MCCOOK         CLOUDY    62  38  40 MISG      30.25F
OGALLALA       CLOUDY    56  42  59 S8        30.25F
$$

NEZ005>010-023>029-035>040-094-212100-
NORTH CENTRAL NEBRASKA

CITY           SKY/WX    TMP DP  RH WIND       PRES   REMARKS
VALENTINE      SUNNY     64  32  30 SE10      30.23F
AINSWORTH      SUNNY     63  38  39 E5        30.24F
BROKEN BOW     SUNNY     63  39  41 VRB3      30.24F
O`NEILL        SUNNY     66  37  33 SW5       30.23F
ORD            SUNNY     62  34  35 VRB3      30.24F
$$

NEZ041-046>049-061>064-073>077-083>087-212100-
SOUTH CENTRAL NEBRASKA

CITY           SKY/WX    TMP DP  RH WIND       PRES   REMARKS
GRAND ISLAND   SUNNY     64  34  32 VRB6      30.26F
AURORA         SUNNY     64  33  32 CALM      30.26F
HASTINGS       SUNNY     63  38  39 NW5       30.26F
HEBRON         SUNNY     64  33  31 W3        30.26F
HOLDREGE       SUNNY     60  36  40 S6        30.27F
KEARNEY *      SUNNY     63  34  34 SE8       30.27F
$$

NEZ011>018-030>034-042>045-212100-
NORTHEAST NEBRASKA

CITY           SKY/WX    TMP DP  RH WIND       PRES   REMARKS
NORFOLK        SUNNY     69  40  34 W8        30.21F
ALBION         SUNNY     66  36  33 W5        30.24F
BLAIR          SUNNY     70  36  28 W10G18    30.20S
COLUMBUS *     SUNNY     66  37  34 SW9       30.26F
FREMONT        SUNNY     72  35  26 SW8G16    30.21S
TEKAMAH        SUNNY     74  36  25 NW8G20    30.18F
WAYNE          SUNNY     70  36  28 NW6       30.20F
$$

NEZ050>053-065>068-078-088>093-212100-
SOUTHEAST NEBRASKA

CITY           SKY/WX    TMP DP  RH WIND       PRES   REMARKS
LINCOLN        SUNNY     68  39  34 SW5       30.24F
OMAHA EPPLEY   MOSUNNY   72  40  31 W14       30.19F
BEATRICE       SUNNY     65  39  38 CALM      30.25F
FALLS CITY     SUNNY     68  43  40 W5G16     30.23F
NEBRASKA CITY  SUNNY     67  32  26 NW3       30.23S
$$

NEZ044-045-051>053-067-212100-
OMAHA AREA

CITY           SKY/WX    TMP DP  RH WIND       PRES   REMARKS
OMAHA EPPLEY   MOSUNNY   72  40  31 W14       30.19F
BLAIR          SUNNY     70  36  28 W10G18    30.20S
FREMONT        SUNNY     72  35  26 SW8G16    30.21S
MILLARD        SUNNY     69  42  36 W14       30.21S
OFFUTT AFB     SUNNY     70  42  35 W14       30.19F
WAHOO            N/A    N/A N/A N/A W8        30.22
$$


USA.gov is the U.S. government's official web portal to all federal, state and local government web resources and services.